STARLINK-3935 (52549 NORAD) Tracking and Keplerian Element Data
This shows tracking and keplerian element data for the satellite.
Feedback or suggestion? Click here.
Element | Value |
Catalog | 52549 |
Name | STARLINK-3935 |
Epoch Orbit | 130 |
Epoch Day | 167.08334491 |
Epoch Year | 2022 |
RAAN | 130.4053 |
Inclination | 53.217 |
Eccentricity | 0.0001354 |
Argument of Perigee | 54.2917 |
Mean Anonmoly | 33.6641 |
Mean Motion | 15.49929843 |
Decay Rate | -0.00016338 |
L1 | 1 52549U 22051S 22167.08334491 -.00016338 00000+0 -28006-3 0 9996 |
L2 | 2 52549 53.2170 130.4053 0001354 54.2917 33.6641 15.49929843 1303 |
Live tracking and technical data element details for STARLINK-3935 (NORAD 52549). STARLINK-3935 can be tracked NOW for your location showing map with azimuth and elevation plus other details from your city location.
Track the satellite on the map from your city or location and see movement details for azimuth, elevation, latitude, longitude, range, height, and movement on the map or in text.
IsCatalogInMostPopularTable: catalog: 52549, numindb: 3
Update: records affected: 1
GetName: 52549 STARLINK-3935
Hit Count: updated at: Mon, 27 Jun 2022 06:32:35 GMT